User: anonymous   Login
Location: The D'Auria's Ocala Star Observatory
(29.0276°N, 82.1742°W)
Time: 14:11:27
(UTC-05:00)
Language:

Okean 3 Rocket - Orbit

View from above orbital plane
View from above orbital plane
View from above satellite
View from above satellite

Ground track
Ground track

The orbit data is extracted from the following two-line orbital elements,

1 21398U 91039B   15030.85006352  .00000391  00000-0  49216-4 0  9677
2 21398 082.5258 314.3603 0022747 145.6810 273.3379 14.79366447275517
Epoch (UTC): 30 January 2015 20:24:05
Eccentricity: 0.0022747
inclination: 82.5258°
perigee height: 615 km
apogee height: 647 km
right ascension of ascending node: 314.3603°
argument of perigee: 145.6810°
revolutions per day: 14.79366447
mean anomaly at epoch: 273.3379°
orbit number at epoch: 27551

The dashed part of the orbit path shows where the satellite is in the earth's shadow,  

DLR